THOR ABLESTAR DEB, 13512

Orbit data source: Space-Track

THOR ABLESTAR DEB, 13512 is space debris in LEO originally from a launch on Thu, 29 Jun 1961 UTC launched from the Air Force Eastern Test Range (AFETR). Debris objects in space refer to the collection of defunct objects orbiting the Earth. Examples of debris include non-operational satellites, rocket bodies, and fragments generated from explosions, collisions, or faulty payload assembly.

Loading next visibility...
Identifier
13512, 1961-015KV
Orbit
LEO
Country
Flag of USUS
Related business
Manufacturer
Unknown
Mission
Spacecraft
Bus & Motor
Unknown
Mass
Unknown
Launch date (UTC)
1961-06-29 (65 years ago)
Launch vehicle
Unknown
Launch site
Air Force Eastern Test Range (AFETR)
Object type
Payload
Rocket body
Debris
Shape & HBR
Unknown shape, 0.1 m
Radar Cross Section
Medium (>0.1 m² and <1 m²)

Expand to show TLE details & history
Last TLE update: 3 days ago

TLE from 3 days ago
0 THOR ABLESTAR DEB
1 13512U 61015KV  26170.89623521  .00009249  00000-0  21667-2 0  9995
2 13512  65.4669 340.7570 0038825 284.2674 224.2977 14.54489034343088
Epoch: 2026-06-19T21:30Z
TLE epoch observation values (Epoch: 2026-06-19T21:30:34.722Z)
Latitude
28.65942°
Longitude
-84.3732°
Altitude
733.422 km
Speed
7.481 km/s
True Right ascension
09h 45m 33s
True Declination
28° 30' 52"
Sunlit
Object was in daylight at epoch
Visualization orbit readout
Latitude
Unknown
Longitude
Unknown
Altitude
Unknown
Speed
Unknown
Apparent Right ascension
Unknown
Apparent Declination
Unknown
Sunlit
N/A
Visualization observer readout
Local Sidereal Time
12:34:15
Azimuth
Unknown
Elevation
Unknown
Doppler factor
Unknown
Orbital elements
Apogee altitude
737.047 km
Perigee altitude
682.012 km
Semi-major axis
7,087.666 km
Eccentricity
0.00388
Inclination
65.4669°
RAAN
340.757°
Arg. of periapsis
284.2674°
True anomaly
223.98806°
Mean anomaly
224.2977°
Eccentric anomaly
224.14277°
Mean motion
3.63738 °/min
Orbital period
98.97 mins
BSTAR
0.0021667
Loading maneuver chart data...
Computing Atmospheric mass density...

Documentation

Showing up to 5 results
|